Skip Navigation Links
NOAA logo - Click to go to the NOAA homepage
NOAA's National Weather Service
Alaska Aviation Weather Unit
  NWS logo - Click to go to the NWS homepage
Left Navbar Graphic     08 AKDT = 16 GMT

   
NOAA is celebrating 200 years of science, service, and stewardship. Visit the NOAA 200th celebration Web site to learn more.
USA.gov is the U.S. Government's official Web portal to all Federal, state and local government Web resources and services.
Facebook
NWS on Facebook

Important Change Regarding the AAWU Web Presence

 

Over the last several months, the AAWU has been working to navigate its webpages to a nationally supported server. Security, as well as other needs, have necessitated the change.  In the process, we have made an effort to enhance the functionality of our website, as well as some of our products. As of June 20, 2017, aawu.arh.noaa.gov will be discontinued. The new AAWU web address is weather.gov/aawu. It is now live and will run in-parallel with the old site until it is discontinued. Please send any feedback or questions regarding the new webpages to nws.ar.aawu.webauthors@noaa.gov.  Thank you for your patience during this time of transition.
AAWU Home :: Display TAF Add Bookmark
TAF PAJN 291120Z 2912/3012 09007KT P6SM FEW060 BKN180
     FM291700 12008KT P6SM BKN050 OVC150
     FM292200 22008KT P6SM BKN040 BKN150
     FM300400 VRB04KT P6SM BKN040 BKN150=

METAR PAJN 291053Z 10006KT 10SM FEW085 BKN120 BKN160 11/06 A2998= METAR PAJN 291153Z 13003KT 10SM FEW095 BKN140 BKN180 12/06 A2999= METAR PAJN 291253Z 00000KT 10SM FEW095 SCT140 BKN160 BKN200 11/07 A3000= METAR PAJN 291353Z 08012KT 10SM FEW080 SCT140 BKN180 13/07 A3000= METAR PAJN 291453Z VRB03KT 10SM FEW080 BKN140 OVC170 13/07 A3000= METAR PAJN 291553Z VRB05KT 10SM FEW080 BKN130 OVC170 14/07 A3000=
 Alaska TAF Map

NOAA's National Weather Service
Alaska Aviation Weather Unit
6930 Sand Lake Road
Anchorage, AK 99502-1845
Disclaimer
Credits
Glossary
Privacy Policy
About Us
Career Opportunities
Contact AAWU Internet Services Site last modified: April, 17th 2012